Location: Miles
(41.4492°N, 81.6087°W)
Time: 02:52:17
(UTC+00:00)

S-56A Canister/Altair - Pass Details

Date: 27 September 2024
Orbit: 636 x 2487 km, 38.9° (Epoch: 11 October)

Event Time Altitude Azimuth Distance (km) Brightness Sun altitude
Rises 01:20:00 0° 276° (W) 3,158 12.0 -23.7°
Reaches altitude 10° 01:22:19 10° 265° (W) 2,371 10.9 -24.1°
Maximum altitude 01:27:14 33° 202° (SSW) 1,579 9.0 -25.0°
Enters shadow 01:29:07 29° 173° (S) 1,850 9.2 -25.3°
